| time (UTC) | temp F | wind direction | speed MPH | gust MPH | rain 1hr in | rain 24hr in | rain mn in | humidity % | barometer mb |
| 20260507160412 | 49 | 251 | 3.0 | 4.0 | 0.00 | 0.00 | 0.00 | 100 | 1015.2 |
| 20260507155932 | 49 | 248 | 4.0 | 5.0 | 0.00 | 0.00 | 0.00 | 100 | 1015.2 |
| 20260507155452 | 49 | 228 | 4.0 | 5.0 | 0.00 | 0.00 | 0.00 | 100 | 1015.2 |
| 20260507155012 | 49 | 240 | 4.0 | 6.0 | 0.00 | 0.00 | 0.00 | 100 | 1015.2 |
| 20260507154532 | 49 | 234 | 4.0 | 6.0 | 0.00 | 0.00 | 0.00 | 100 | 1015.1 |
| 20260507154052 | 49 | 232 | 4.0 | 7.0 | 0.00 | 0.00 | 0.00 | 100 | 1015.0 |
| 20260507153612 | 49 | 227 | 6.0 | 7.0 | 0.00 | 0.00 | 0.00 | 100 | 1015.0 |
| 20260507153132 | 49 | 231 | 5.0 | 7.0 | 0.00 | 0.00 | 0.00 | 100 | 1014.8 |
| 20260507152652 | 49 | 234 | 5.0 | 8.0 | 0.00 | 0.00 | 0.00 | 100 | 1014.8 |
| 20260507152212 | 49 | 225 | 6.0 | 9.0 | 0.00 | 0.00 | 0.00 | 100 | 1014.8 |
| 20260507151732 | 49 | 236 | 6.0 | 8.0 | 0.00 | 0.00 | 0.00 | 100 | 1014.7 |
| 20260507151252 | 49 | 250 | 6.0 | 9.0 | 0.00 | 0.00 | 0.00 | 100 | 1014.7 |
| 20260507150812 | 49 | 235 | 7.0 | 10.0 | 0.00 | 0.00 | 0.00 | 100 | 1014.5 |
| 20260507150332 | 49 | 234 | 6.0 | 8.0 | 0.00 | 0.00 | 0.00 | 100 | 1014.5 |
| 20260507150023 | 49 | 222 | 7.0 | 8.0 | 0.00 | 0.00 | 0.00 | 100 | 1014.5 |
| 20260507145852 | 49 | 222 | 7.0 | 8.0 | 0.00 | 0.00 | 0.00 | 100 | 1014.5 |
| 20260507145412 | 49 | 231 | 6.0 | 7.0 | 0.00 | 0.00 | 0.00 | 100 | 1014.5 |
| 20260507144932 | 49 | 225 | 7.0 | 8.0 | 0.00 | 0.00 | 0.00 | 100 | 1014.5 |
| 20260507144452 | 49 | 225 | 6.0 | 7.0 | 0.00 | 0.00 | 0.00 | 100 | 1014.6 |
| 20260507144012 | 49 | 210 | 5.0 | 7.0 | 0.00 | 0.00 | 0.00 | 100 | 1014.6 |
| 20260507143532 | 48 | 204 | 5.0 | 7.0 | 0.00 | 0.00 | 0.00 | 100 | 1014.6 |
| 20260507143052 | 49 | 225 | 7.0 | 8.0 | 0.00 | 0.00 | 0.00 | 99 | 1014.6 |
| 20260507142658 | 49 | 238 | 6.0 | 7.0 | 0.00 | 0.00 | 0.00 | 96 | 1014.6 |
| 20260507142612 | 49 | 238 | 6.0 | 7.0 | 0.00 | 0.00 | 0.00 | 96 | 1014.6 |
| 20260507142132 | 49 | 251 | 8.0 | 12.0 | 0.00 | 0.00 | 0.00 | 95 | 1014.6 |
| 20260507141652 | 50 | 232 | 8.0 | 11.0 | 0.00 | 0.00 | 0.00 | 95 | 1014.5 |
| 20260507141423 | 50 | 252 | 7.0 | 10.0 | 0.00 | 0.00 | 0.00 | 94 | 1014.5 |
| 20260507141211 | 50 | 252 | 7.0 | 10.0 | 0.00 | 0.00 | 0.00 | 94 | 1014.5 |
| 20260507140731 | 50 | 251 | 6.0 | 8.0 | 0.00 | 0.00 | 0.00 | 94 | 1014.4 |
| 20260507140323 | 50 | 258 | 5.0 | 10.0 | 0.00 | 0.00 | 0.00 | 92 | 1014.4 |
| 20260507140252 | 50 | 258 | 5.0 | 10.0 | 0.00 | 0.00 | 0.00 | 92 | 1014.4 |
| 20260507135811 | 51 | 268 | 6.0 | 10.0 | 0.00 | 0.00 | 0.00 | 89 | 1014.3 |
| 20260507135331 | 52 | 270 | 7.0 | 10.0 | 0.00 | 0.00 | 0.00 | 86 | 1014.2 |
| 20260507134855 | 52 | 267 | 6.0 | 9.0 | 0.00 | 0.00 | 0.00 | 84 | 1014.1 |
| 20260507134851 | 52 | 267 | 6.0 | 9.0 | 0.00 | 0.00 | 0.00 | 84 | 1014.1 |
| 20260507134416 | 53 | 231 | 11.0 | 16.0 | 0.00 | 0.00 | 0.00 | 81 | 1014.2 |
| 20260507134414 | 53 | 231 | 11.0 | 16.0 | 0.00 | 0.00 | 0.00 | 81 | 1014.2 |
| 20260507134411 | 53 | 231 | 11.0 | 16.0 | 0.00 | 0.00 | 0.00 | 81 | 1014.2 |
| 20260507133935 | 54 | 183 | 14.0 | 15.0 | 0.00 | 0.00 | 0.00 | 77 | 1014.2 |
| 20260507133931 | 54 | 183 | 14.0 | 15.0 | 0.00 | 0.00 | 0.00 | 77 | 1014.2 |
| 20260507133450 | 54 | 186 | 14.0 | 15.0 | 0.00 | 0.00 | 0.00 | 79 | 1014.2 |
| 20260507133015 | 54 | 189 | 13.0 | 17.0 | 0.00 | 0.00 | 0.00 | 82 | 1014.1 |
| 20260507133010 | 54 | 189 | 13.0 | 17.0 | 0.00 | 0.00 | 0.00 | 82 | 1014.1 |
| 20260507132530 | 54 | 201 | 12.0 | 15.0 | 0.00 | 0.00 | 0.00 | 83 | 1014.1 |
| 20260507132054 | 54 | 181 | 11.0 | 13.0 | 0.00 | 0.00 | 0.00 | 83 | 1014.1 |
| 20260507132050 | 54 | 181 | 11.0 | 13.0 | 0.00 | 0.00 | 0.00 | 83 | 1014.1 |
| 20260507131614 | 53 | 213 | 11.0 | 13.0 | 0.00 | 0.00 | 0.00 | 86 | 1014.0 |
| 20260507131610 | 53 | 213 | 11.0 | 13.0 | 0.00 | 0.00 | 0.00 | 86 | 1014.0 |
| 20260507131134 | 52 | 196 | 12.0 | 15.0 | 0.00 | 0.00 | 0.00 | 92 | 1014.0 |
| 20260507131130 | 52 | 196 | 12.0 | 15.0 | 0.00 | 0.00 | 0.00 | 92 | 1014.0 |
| 20260507130654 | 51 | 186 | 12.0 | 15.0 | 0.00 | 0.00 | 0.00 | 93 | 1013.9 |
| 20260507130649 | 51 | 186 | 12.0 | 15.0 | 0.00 | 0.00 | 0.00 | 93 | 1013.9 |
| 20260507130209 | 52 | 192 | 13.0 | 16.0 | 0.00 | 0.00 | 0.00 | 93 | 1014.1 |
| 20260507125923 | 53 | 198 | 14.0 | 17.0 | 0.00 | 0.00 | 0.00 | 83 | 1014.1 |
| 20260507125734 | 53 | 198 | 14.0 | 17.0 | 0.00 | 0.00 | 0.00 | 83 | 1014.1 |
| 20260507125729 | 53 | 198 | 14.0 | 17.0 | 0.00 | 0.00 | 0.00 | 83 | 1014.1 |
| 20260507125249 | 54 | 195 | 15.0 | 18.0 | 0.00 | 0.00 | 0.00 | 79 | 1014.0 |
| 20260507124813 | 55 | 195 | 16.0 | 19.0 | 0.00 | 0.00 | 0.00 | 76 | 1014.0 |
| 20260507124809 | 55 | 195 | 16.0 | 19.0 | 0.00 | 0.00 | 0.00 | 76 | 1014.0 |
| 20260507124333 | 54 | 218 | 15.0 | 18.0 | 0.00 | 0.00 | 0.00 | 81 | 1013.9 |
| 20260507124329 | 54 | 218 | 15.0 | 18.0 | 0.00 | 0.00 | 0.00 | 81 | 1013.9 |
| 20260507124026 | 56 | 216 | 13.0 | 15.0 | 0.00 | 0.00 | 0.00 | 74 | 1013.7 |
| 20260507123848 | 56 | 216 | 13.0 | 15.0 | 0.00 | 0.00 | 0.00 | 74 | 1013.7 |
| 20260507123408 | 56 | 206 | 14.0 | 18.0 | 0.00 | 0.00 | 0.00 | 70 | 1013.7 |
| 20260507122932 | 57 | 189 | 14.0 | 17.0 | 0.00 | 0.00 | 0.00 | 68 | 1013.7 |
| 20260507122928 | 57 | 189 | 14.0 | 17.0 | 0.00 | 0.00 | 0.00 | 68 | 1013.7 |
| 20260507122448 | 56 | 195 | 15.0 | 16.0 | 0.00 | 0.00 | 0.00 | 69 | 1013.7 |
| 20260507122012 | 56 | 198 | 13.0 | 16.0 | 0.00 | 0.00 | 0.00 | 69 | 1013.6 |
| 20260507122007 | 56 | 198 | 13.0 | 16.0 | 0.00 | 0.00 | 0.00 | 69 | 1013.6 |
| 20260507121532 | 55 | 192 | 15.0 | 16.0 | 0.00 | 0.00 | 0.00 | 70 | 1013.6 |
| 20260507121527 | 55 | 192 | 15.0 | 16.0 | 0.00 | 0.00 | 0.00 | 70 | 1013.6 |
| 20260507121051 | 55 | 192 | 15.0 | 18.0 | 0.00 | 0.00 | 0.00 | 70 | 1013.7 |
| 20260507121047 | 55 | 192 | 15.0 | 18.0 | 0.00 | 0.00 | 0.00 | 70 | 1013.7 |
| 20260507120611 | 55 | 192 | 15.0 | 17.0 | 0.00 | 0.00 | 0.00 | 71 | 1013.4 |
| 20260507120607 | 55 | 192 | 15.0 | 17.0 | 0.00 | 0.00 | 0.00 | 71 | 1013.4 |
| 20260507120131 | 56 | 209 | 13.0 | 15.0 | 0.00 | 0.00 | 0.00 | 70 | 1013.5 |
| 20260507120126 | 56 | 209 | 13.0 | 15.0 | 0.00 | 0.00 | 0.00 | 70 | 1013.5 |
| 20260507115646 | 56 | 201 | 13.0 | 16.0 | 0.00 | 0.00 | 0.00 | 68 | 1013.5 |
| 20260507115210 | 56 | 194 | 12.0 | 14.0 | 0.00 | 0.00 | 0.00 | 70 | 1013.5 |
| 20260507115206 | 56 | 194 | 12.0 | 14.0 | 0.00 | 0.00 | 0.00 | 70 | 1013.5 |
| 20260507114730 | 55 | 198 | 11.0 | 16.0 | 0.00 | 0.00 | 0.00 | 71 | 1013.6 |
| 20260507114726 | 55 | 198 | 11.0 | 16.0 | 0.00 | 0.00 | 0.00 | 71 | 1013.6 |
| 20260507114250 | 55 | 209 | 11.0 | 13.0 | 0.00 | 0.00 | 0.00 | 73 | 1013.5 |
| 20260507114245 | 55 | 209 | 11.0 | 13.0 | 0.00 | 0.00 | 0.00 | 73 | 1013.5 |
| 20260507113805 | 54 | 219 | 13.0 | 14.0 | 0.00 | 0.00 | 0.00 | 71 | 1013.6 |
| 20260507113329 | 55 | 204 | 11.0 | 13.0 | 0.00 | 0.00 | 0.00 | 74 | 1013.4 |
| 20260507113325 | 55 | 204 | 11.0 | 13.0 | 0.00 | 0.00 | 0.00 | 74 | 1013.4 |
| 20260507112849 | 54 | 228 | 12.0 | 15.0 | 0.00 | 0.00 | 0.00 | 72 | 1013.5 |
| 20260507112845 | 54 | 228 | 12.0 | 15.0 | 0.00 | 0.00 | 0.00 | 72 | 1013.5 |
| 20260507112405 | 54 | 209 | 14.0 | 17.0 | 0.00 | 0.00 | 0.00 | 75 | 1013.3 |
| 20260507111929 | 54 | 189 | 14.0 | 17.0 | 0.00 | 0.00 | 0.00 | 76 | 1013.5 |
| 20260507111925 | 54 | 189 | 14.0 | 17.0 | 0.00 | 0.00 | 0.00 | 76 | 1013.5 |
| 20260507111449 | 54 | 204 | 15.0 | 19.0 | 0.00 | 0.00 | 0.00 | 74 | 1013.4 |
| 20260507111444 | 54 | 204 | 15.0 | 19.0 | 0.00 | 0.00 | 0.00 | 74 | 1013.4 |
| 20260507111008 | 55 | 199 | 13.0 | 15.0 | 0.00 | 0.00 | 0.00 | 73 | 1013.4 |
| 20260507111004 | 55 | 199 | 13.0 | 15.0 | 0.00 | 0.00 | 0.00 | 73 | 1013.4 |
| 20260507110524 | 55 | 215 | 14.0 | 17.0 | 0.00 | 0.00 | 0.00 | 71 | 1013.4 |
| 20260507110048 | 56 | 195 | 15.0 | 18.0 | 0.00 | 0.00 | 0.00 | 70 | 1013.3 |
| 20260507110044 | 56 | 195 | 15.0 | 18.0 | 0.00 | 0.00 | 0.00 | 70 | 1013.3 |
| 20260507105608 | 58 | 198 | 14.0 | 18.0 | 0.00 | 0.00 | 0.00 | 68 | 1013.3 |
| 20260507105603 | 58 | 198 | 14.0 | 18.0 | 0.00 | 0.00 | 0.00 | 68 | 1013.3 |
| 20260507105127 | 57 | 189 | 12.0 | 16.0 | 0.00 | 0.00 | 0.00 | 71 | 1013.3 |
| 20260507105123 | 57 | 189 | 12.0 | 16.0 | 0.00 | 0.00 | 0.00 | 71 | 1013.3 |
| 20260507104647 | 56 | 218 | 13.0 | 18.0 | 0.00 | 0.00 | 0.00 | 73 | 1013.3 |
| 20260507104643 | 56 | 218 | 13.0 | 18.0 | 0.00 | 0.00 | 0.00 | 73 | 1013.3 |
| 20260507104202 | 55 | 225 | 14.0 | 16.0 | 0.00 | 0.00 | 0.00 | 74 | 1013.3 |
| 20260507103722 | 55 | 196 | 17.0 | 20.0 | 0.00 | 0.00 | 0.00 | 74 | 1013.3 |
| 20260507103242 | 55 | 198 | 15.0 | 19.0 | 0.00 | 0.00 | 0.00 | 72 | 1013.4 |
| 20260507102802 | 55 | 186 | 15.0 | 17.0 | 0.00 | 0.00 | 0.00 | 70 | 1013.3 |
| 20260507102322 | 55 | 199 | 17.0 | 21.0 | 0.00 | 0.00 | 0.00 | 73 | 1013.4 |
| 20260507101841 | 54 | 203 | 17.0 | 20.0 | 0.00 | 0.00 | 0.00 | 73 | 1013.2 |
| 20260507101401 | 54 | 206 | 17.0 | 21.0 | 0.00 | 0.00 | 0.00 | 74 | 1013.1 |
| 20260507100921 | 54 | 204 | 15.0 | 18.0 | 0.00 | 0.00 | 0.00 | 73 | 1013.0 |
| 20260507100441 | 54 | 210 | 16.0 | 20.0 | 0.00 | 0.00 | 0.00 | 75 | 1013.0 |
| 20260507100005 | 54 | 216 | 15.0 | 17.0 | 0.00 | 0.00 | 0.00 | 75 | 1013.2 |
| 20260507100001 | 54 | 216 | 15.0 | 17.0 | 0.00 | 0.00 | 0.00 | 75 | 1013.2 |
| 20260507095525 | 54 | 216 | 16.0 | 19.0 | 0.00 | 0.00 | 0.00 | 76 | 1012.9 |
| 20260507095521 | 54 | 216 | 16.0 | 19.0 | 0.00 | 0.00 | 0.00 | 76 | 1012.9 |
| 20260507095040 | 53 | 218 | 17.0 | 20.0 | 0.00 | 0.00 | 0.00 | 77 | 1013.1 |
| 20260507094600 | 53 | 212 | 19.0 | 22.0 | 0.00 | 0.00 | 0.00 | 75 | 1012.9 |
| 20260507094120 | 55 | 199 | 19.0 | 25.0 | 0.00 | 0.00 | 0.00 | 77 | 1012.9 |
| 20260507093644 | 55 | 199 | 19.0 | 23.0 | 0.00 | 0.00 | 0.00 | 73 | 1013.0 |
| 20260507093640 | 55 | 199 | 19.0 | 23.0 | 0.00 | 0.00 | 0.00 | 73 | 1013.0 |
| 20260507093200 | 55 | 198 | 20.0 | 25.0 | 0.00 | 0.00 | 0.00 | 76 | 1012.8 |
| 20260507092724 | 55 | 195 | 17.0 | 21.0 | 0.00 | 0.00 | 0.00 | 74 | 1012.6 |
| 20260507092719 | 55 | 195 | 17.0 | 21.0 | 0.00 | 0.00 | 0.00 | 74 | 1012.6 |
| 20260507092239 | 55 | 212 | 18.0 | 21.0 | 0.00 | 0.00 | 0.00 | 74 | 1012.8 |
| 20260507091834 | 56 | 224 | 19.0 | 23.0 | 0.00 | 0.00 | 0.00 | 75 | 1012.5 |
| 20260507091759 | 56 | 224 | 19.0 | 23.0 | 0.00 | 0.00 | 0.00 | 75 | 1012.5 |
| 20260507091323 | 55 | 206 | 19.0 | 23.0 | 0.00 | 0.00 | 0.00 | 73 | 1012.4 |
| 20260507091319 | 55 | 206 | 19.0 | 23.0 | 0.00 | 0.00 | 0.00 | 73 | 1012.4 |
| 20260507090843 | 55 | 206 | 19.0 | 22.0 | 0.00 | 0.00 | 0.00 | 76 | 1012.6 |
| 20260507090838 | 55 | 206 | 19.0 | 22.0 | 0.00 | 0.00 | 0.00 | 76 | 1012.6 |
| 20260507090358 | 55 | 215 | 21.0 | 24.0 | 0.00 | 0.00 | 0.00 | 78 | 1012.5 |
| 20260507085918 | 55 | 209 | 19.0 | 22.0 | 0.00 | 0.00 | 0.00 | 77 | 1012.6 |
| 20260507085442 | 54 | 207 | 18.0 | 21.0 | 0.00 | 0.00 | 0.00 | 83 | 1012.4 |
| 20260507085438 | 54 | 207 | 18.0 | 21.0 | 0.00 | 0.00 | 0.00 | 83 | 1012.4 |
| 20260507085002 | 53 | 201 | 19.0 | 23.0 | 0.00 | 0.00 | 0.00 | 89 | 1012.4 |
| 20260507084958 | 53 | 201 | 19.0 | 23.0 | 0.00 | 0.00 | 0.00 | 89 | 1012.4 |
| 20260507084522 | 52 | 199 | 20.0 | 22.0 | 0.00 | 0.00 | 0.00 | 93 | 1012.5 |
| 20260507084517 | 52 | 199 | 20.0 | 22.0 | 0.00 | 0.00 | 0.00 | 93 | 1012.5 |
| 20260507084037 | 53 | 198 | 16.0 | 19.0 | 0.00 | 0.00 | 0.00 | 95 | 1012.4 |
| 20260507083557 | 53 | 192 | 17.0 | 19.0 | 0.00 | 0.00 | 0.00 | 95 | 1012.4 |
| 20260507083122 | 53 | 196 | 18.0 | 20.0 | 0.00 | 0.00 | 0.00 | 95 | 1012.5 |
| 20260507083117 | 53 | 196 | 18.0 | 20.0 | 0.00 | 0.00 | 0.00 | 95 | 1012.5 |
| 20260507082641 | 52 | 189 | 18.0 | 21.0 | 0.00 | 0.00 | 0.00 | 94 | 1012.4 |
| 20260507082637 | 52 | 189 | 18.0 | 21.0 | 0.00 | 0.00 | 0.00 | 94 | 1012.4 |
| 20260507082201 | 53 | 184 | 17.0 | 25.0 | 0.00 | 0.00 | 0.00 | 96 | 1012.3 |
| 20260507082156 | 53 | 184 | 17.0 | 25.0 | 0.00 | 0.00 | 0.00 | 96 | 1012.3 |
| 20260507081815 | 52 | 190 | 21.0 | 25.0 | 0.00 | 0.00 | 0.00 | 94 | 1012.1 |
| 20260507081716 | 52 | 190 | 21.0 | 25.0 | 0.00 | 0.00 | 0.00 | 94 | 1012.1 |
| 20260507081236 | 53 | 186 | 20.0 | 24.0 | 0.00 | 0.00 | 0.00 | 94 | 1012.0 |
| 20260507080800 | 54 | 181 | 20.0 | 25.0 | 0.00 | 0.00 | 0.00 | 92 | 1011.9 |
| 20260507080756 | 54 | 181 | 20.0 | 25.0 | 0.00 | 0.00 | 0.00 | 92 | 1011.9 |
| 20260507080316 | 55 | 189 | 18.0 | 23.0 | 0.00 | 0.00 | 0.00 | 88 | 1011.7 |
| 20260507075835 | 55 | 195 | 19.0 | 23.0 | 0.00 | 0.00 | 0.00 | 89 | 1011.7 |
| 20260507075355 | 55 | 203 | 19.0 | 21.0 | 0.00 | 0.00 | 0.00 | 89 | 1011.7 |
| 20260507074915 | 55 | 201 | 21.0 | 31.0 | 0.00 | 0.00 | 0.00 | 90 | 1011.7 |
| 20260507074435 | 55 | 203 | 22.0 | 25.0 | 0.00 | 0.00 | 0.00 | 91 | 1011.7 |
| 20260507073955 | 55 | 204 | 21.0 | 23.0 | 0.00 | 0.00 | 0.00 | 92 | 1011.6 |
| 20260507073515 | 54 | 215 | 17.0 | 24.0 | 0.00 | 0.00 | 0.00 | 95 | 1011.6 |
| 20260507073034 | 53 | 218 | 18.0 | 23.0 | 0.00 | 0.00 | 0.00 | 96 | 1011.5 |
| 20260507072554 | 53 | 207 | 17.0 | 21.0 | 0.00 | 0.00 | 0.00 | 97 | 1011.5 |
| 20260507072114 | 53 | 187 | 17.0 | 22.0 | 0.00 | 0.00 | 0.00 | 98 | 1011.5 |
| 20260507071634 | 53 | 186 | 15.0 | 19.0 | 0.00 | 0.00 | 0.00 | 98 | 1011.4 |
| 20260507071154 | 53 | 196 | 15.0 | 18.0 | 0.00 | 0.00 | 0.00 | 100 | 1011.4 |
| 20260507070714 | 52 | 193 | 16.0 | 20.0 | 0.00 | 0.00 | 0.00 | 100 | 1011.3 |
| 20260507070234 | 53 | 213 | 14.0 | 17.0 | 0.00 | 0.00 | 0.00 | 100 | 1011.4 |
| 20260507065753 | 53 | 193 | 16.0 | 23.0 | 0.00 | 0.00 | 0.00 | 100 | 1011.2 |
| 20260507065313 | 53 | 190 | 15.0 | 19.0 | 0.00 | 0.00 | 0.00 | 100 | 1011.3 |
| 20260507064833 | 53 | 201 | 15.0 | 18.0 | 0.00 | 0.00 | 0.00 | 100 | 1011.2 |
| 20260507064353 | 52 | 219 | 18.0 | 23.0 | 0.00 | 0.00 | 0.00 | 100 | 1011.2 |
| 20260507063913 | 52 | 210 | 16.0 | 19.0 | 0.00 | 0.00 | 0.00 | 100 | 1011.2 |
| 20260507063433 | 52 | 219 | 17.0 | 20.0 | 0.00 | 0.00 | 0.00 | 100 | 1011.1 |
| 20260507062953 | 53 | 216 | 19.0 | 22.0 | 0.00 | 0.00 | 0.00 | 100 | 1011.1 |
| 20260507062513 | 53 | 210 | 16.0 | 18.0 | 0.00 | 0.00 | 0.00 | 100 | 1011.2 |
| 20260507062032 | 52 | 219 | 18.0 | 21.0 | 0.00 | 0.00 | 0.00 | 100 | 1011.1 |
| 20260507061552 | 52 | 210 | 14.0 | 17.0 | 0.00 | 0.00 | 0.00 | 100 | 1011.1 |
| 20260507061112 | 52 | 199 | 16.0 | 19.0 | 0.00 | 0.00 | 0.00 | 100 | 1010.9 |
| 20260507060632 | 52 | 186 | 16.0 | 20.0 | 0.00 | 0.00 | 0.00 | 100 | 1010.9 |
| 20260507060152 | 52 | 198 | 14.0 | 16.0 | 0.00 | 0.00 | 0.00 | 100 | 1011.0 |
| 20260507055712 | 52 | 199 | 19.0 | 23.0 | 0.00 | 0.00 | 0.00 | 100 | 1010.8 |
| 20260507055232 | 52 | 184 | 16.0 | 18.0 | 0.00 | 0.00 | 0.00 | 100 | 1010.9 |
| 20260507054752 | 53 | 207 | 15.0 | 17.0 | 0.00 | 0.00 | 0.00 | 100 | 1010.7 |
| 20260507054311 | 53 | 203 | 12.0 | 16.0 | 0.00 | 0.00 | 0.00 | 100 | 1010.6 |
| 20260507053831 | 52 | 204 | 14.0 | 16.0 | 0.00 | 0.00 | 0.00 | 100 | 1010.6 |
| 20260507053351 | 52 | 192 | 14.0 | 16.0 | 0.00 | 0.00 | 0.00 | 100 | 1010.5 |
| 20260507052911 | 52 | 193 | 16.0 | 20.0 | 0.00 | 0.00 | 0.00 | 100 | 1010.6 |
| 20260507052431 | 51 | 190 | 17.0 | 19.0 | 0.00 | 0.00 | 0.00 | 100 | 1010.4 |
| 20260507051951 | 51 | 196 | 16.0 | 18.0 | 0.00 | 0.00 | 0.00 | 100 | 1010.3 |
| 20260507051511 | 52 | 206 | 16.0 | 20.0 | 0.00 | 0.00 | 0.00 | 100 | 1010.3 |
| 20260507051031 | 51 | 190 | 16.0 | 21.0 | 0.00 | 0.00 | 0.00 | 100 | 1010.3 |
| 20260507050551 | 51 | 192 | 15.0 | 18.0 | 0.00 | 0.00 | 0.00 | 100 | 1010.2 |
| 20260507050111 | 51 | 198 | 15.0 | 20.0 | 0.00 | 0.00 | 0.00 | 100 | 1010.3 |
| 20260507045631 | 50 | 192 | 14.0 | 18.0 | 0.00 | 0.00 | 0.00 | 100 | 1010.2 |
| 20260507045150 | 50 | 183 | 12.0 | 15.0 | 0.00 | 0.00 | 0.00 | 100 | 1010.2 |
| 20260507044710 | 49 | 198 | 12.0 | 14.0 | 0.00 | 0.00 | 0.00 | 100 | 1010.2 |
| 20260507044230 | 49 | 206 | 13.0 | 14.0 | 0.00 | 0.00 | 0.00 | 100 | 1010.1 |
| 20260507043751 | 49 | 204 | 14.0 | 17.0 | 0.00 | 0.00 | 0.00 | 100 | 1010.0 |
| 20260507043310 | 49 | 206 | 12.0 | 16.0 | 0.00 | 0.00 | 0.00 | 100 | 1010.0 |
| 20260507042830 | 49 | 189 | 12.0 | 13.0 | 0.00 | 0.00 | 0.00 | 100 | 1009.9 |
| 20260507042350 | 49 | 195 | 11.0 | 13.0 | 0.00 | 0.00 | 0.00 | 100 | 1009.9 |
| 20260507041910 | 49 | 198 | 11.0 | 12.0 | 0.00 | 0.00 | 0.00 | 100 | 1009.9 |
| 20260507041622 | 49 | 198 | 10.0 | 12.0 | 0.00 | 0.00 | 0.00 | 100 | 1009.9 |
| 20260507041430 | 49 | 198 | 10.0 | 12.0 | 0.00 | 0.00 | 0.00 | 100 | 1009.9 |
| 20260507040950 | 49 | 180 | 10.0 | 10.0 | 0.00 | 0.00 | 0.00 | 100 | 1009.9 |
| 20260507040510 | 49 | 186 | 10.0 | 12.0 | 0.00 | 0.00 | 0.00 | 100 | 1009.9 |
| 20260507040030 | 49 | 180 | 9.0 | 10.0 | 0.00 | 0.00 | 0.00 | 100 | 1009.9 |
| 20260507035550 | 49 | 180 | 9.0 | 10.0 | 0.00 | 0.00 | 0.00 | 100 | 1009.9 |
| 20260507035110 | 49 | 183 | 9.0 | 10.0 | 0.00 | 0.00 | 0.00 | 100 | 1009.8 |
| 20260507034630 | 49 | 180 | 10.0 | 12.0 | 0.00 | 0.00 | 0.00 | 100 | 1009.9 |
| 20260507034150 | 49 | 183 | 10.0 | 12.0 | 0.00 | 0.00 | 0.00 | 100 | 1009.9 |
| 20260507033710 | 49 | 180 | 9.0 | 9.0 | 0.00 | 0.00 | 0.00 | 100 | 1009.8 |
| 20260507033230 | 49 | 186 | 9.0 | 10.0 | 0.00 | 0.00 | 0.00 | 100 | 1009.8 |
| 20260507032822 | 49 | 186 | 9.0 | 12.0 | 0.00 | 0.00 | 0.00 | 100 | 1009.8 |
| 20260507032750 | 49 | 186 | 9.0 | 12.0 | 0.00 | 0.00 | 0.00 | 100 | 1009.8 |
| 20260507032310 | 49 | 181 | 10.0 | 13.0 | 0.00 | 0.00 | 0.00 | 100 | 1009.9 |
| 20260507031831 | 49 | 181 | 9.0 | 11.0 | 0.00 | 0.00 | 0.00 | 100 | 1009.8 |
| 20260507031350 | 49 | 186 | 9.0 | 10.0 | 0.00 | 0.00 | 0.00 | 100 | 1009.8 |
| 20260507030911 | 49 | 189 | 9.0 | 10.0 | 0.00 | 0.00 | 0.00 | 100 | 1009.8 |
| 20260507030431 | 49 | 183 | 9.0 | 12.0 | 0.00 | 0.00 | 0.00 | 100 | 1009.8 |
| 20260507025951 | 49 | 186 | 10.0 | 12.0 | 0.00 | 0.00 | 0.00 | 100 | 1009.7 |
| 20260507025511 | 49 | 180 | 11.0 | 13.0 | 0.00 | 0.00 | 0.00 | 100 | 1009.8 |
| 20260507025031 | 49 | 183 | 11.0 | 12.0 | 0.00 | 0.00 | 0.00 | 100 | 1009.7 |
| 20260507024551 | 48 | 189 | 11.0 | 13.0 | 0.00 | 0.00 | 0.00 | 100 | 1009.7 |
| 20260507024228 | 48 | 183 | 10.0 | 11.0 | 0.00 | 0.00 | 0.00 | 100 | 1009.7 |
| 20260507024111 | 48 | 183 | 10.0 | 11.0 | 0.00 | 0.00 | 0.00 | 100 | 1009.7 |
| 20260507023631 | 48 | 180 | 9.0 | 10.0 | 0.00 | 0.00 | 0.00 | 100 | 1009.6 |
| 20260507023151 | 48 | 183 | 9.0 | 10.0 | 0.00 | 0.00 | 0.00 | 100 | 1009.6 |
| 20260507022711 | 48 | 180 | 9.0 | 12.0 | 0.00 | 0.00 | 0.00 | 100 | 1009.5 |
| 20260507022231 | 48 | 183 | 8.0 | 10.0 | 0.00 | 0.00 | 0.00 | 100 | 1009.5 |
| 20260507021751 | 48 | 180 | 9.0 | 10.0 | 0.00 | 0.00 | 0.00 | 100 | 1009.5 |
| 20260507021311 | 49 | 183 | 9.0 | 11.0 | 0.00 | 0.00 | 0.00 | 100 | 1009.5 |
| 20260507020831 | 49 | 183 | 9.0 | 10.0 | 0.00 | 0.00 | 0.00 | 100 | 1009.5 |
| 20260507020351 | 49 | 180 | 9.0 | 10.0 | 0.00 | 0.00 | 0.00 | 100 | 1009.4 |
| 20260507015911 | 49 | 180 | 9.0 | 11.0 | 0.00 | 0.00 | 0.00 | 100 | 1009.4 |
| 20260507015431 | 49 | 180 | 8.0 | 11.0 | 0.00 | 0.00 | 0.00 | 100 | 1009.3 |
| 20260507014951 | 49 | 183 | 9.0 | 11.0 | 0.00 | 0.00 | 0.00 | 100 | 1009.3 |
| 20260507014511 | 49 | 195 | 9.0 | 10.0 | 0.00 | 0.00 | 0.00 | 100 | 1009.3 |
| 20260507014031 | 49 | 192 | 9.0 | 11.0 | 0.00 | 0.00 | 0.00 | 100 | 1009.2 |
| 20260507013551 | 49 | 195 | 7.0 | 8.0 | 0.00 | 0.00 | 0.00 | 100 | 1009.1 |
| 20260507013111 | 49 | 193 | 7.0 | 8.0 | 0.00 | 0.00 | 0.00 | 100 | 1009.0 |
| 20260507012631 | 49 | 193 | 9.0 | 11.0 | 0.00 | 0.00 | 0.00 | 100 | 1009.0 |
| 20260507012151 | 49 | 206 | 9.0 | 10.0 | 0.00 | 0.00 | 0.00 | 100 | 1008.9 |
| 20260507011711 | 49 | 203 | 9.0 | 11.0 | 0.00 | 0.00 | 0.00 | 100 | 1009.0 |
| 20260507011231 | 49 | 198 | 9.0 | 10.0 | 0.00 | 0.00 | 0.00 | 100 | 1009.0 |
| 20260507010751 | 50 | 183 | 9.0 | 10.0 | 0.00 | 0.00 | 0.00 | 100 | 1009.0 |
| 20260507010311 | 50 | 186 | 9.0 | 10.0 | 0.00 | 0.00 | 0.00 | 100 | 1009.0 |
| 20260507005831 | 50 | 197 | 8.0 | 9.0 | 0.00 | 0.00 | 0.00 | 100 | 1009.1 |
| 20260507005351 | 50 | 193 | 9.0 | 10.0 | 0.00 | 0.00 | 0.00 | 100 | 1009.0 |
| 20260507004911 | 50 | 205 | 10.0 | 11.0 | 0.00 | 0.00 | 0.00 | 100 | 1009.1 |
| 20260507004431 | 50 | 201 | 11.0 | 12.0 | 0.00 | 0.00 | 0.00 | 100 | 1009.1 |
| 20260507003950 | 50 | 213 | 10.0 | 12.0 | 0.00 | 0.00 | 0.00 | 100 | 1009.1 |
| 20260507003510 | 50 | 219 | 8.0 | 8.0 | 0.00 | 0.00 | 0.00 | 100 | 1008.9 |
| 20260507003030 | 50 | 219 | 7.0 | 8.0 | 0.00 | 0.00 | 0.00 | 100 | 1008.8 |
| 20260507002550 | 50 | 222 | 6.0 | 7.0 | 0.00 | 0.00 | 0.00 | 100 | 1008.8 |
| 20260507002110 | 50 | 224 | 7.0 | 8.0 | 0.00 | 0.00 | 0.00 | 100 | 1008.8 |
| 20260507001630 | 50 | 224 | 7.0 | 8.0 | 0.00 | 0.00 | 0.00 | 100 | 1008.7 |
| 20260507001150 | 50 | 225 | 6.0 | 7.0 | 0.00 | 0.00 | 0.00 | 100 | 1008.6 |
| 20260507000710 | 50 | 225 | 5.0 | 6.0 | 0.00 | 0.00 | 0.00 | 100 | 1008.6 |
| 20260507000230 | 50 | 210 | 4.0 | 5.0 | 0.00 | 0.00 | 0.00 | 100 | 1008.5 |
| 20260506235750 | 50 | 222 | 3.0 | 3.0 | 0.00 | 0.00 | 0.00 | 100 | 1008.4 |
| 20260506235310 | 50 | 231 | 3.0 | 3.0 | 0.00 | 0.00 | 0.00 | 100 | 1008.4 |
| 20260506234830 | 50 | 254 | 3.0 | 4.0 | 0.00 | 0.00 | 0.00 | 100 | 1008.3 |
| 20260506234350 | 51 | 225 | 2.0 | 3.0 | 0.00 | 0.00 | 0.00 | 100 | 1008.4 |
| 20260506233910 | 51 | 210 | 3.0 | 5.0 | 0.00 | 0.00 | 0.00 | 100 | 1008.5 |
| 20260506233430 | 51 | 206 | 3.0 | 4.0 | 0.00 | 0.00 | 0.00 | 100 | 1008.5 |
| 20260506232950 | 51 | 225 | 3.0 | 4.0 | 0.00 | 0.00 | 0.00 | 100 | 1008.3 |
| 20260506232510 | 51 | 225 | 4.0 | 5.0 | 0.00 | 0.00 | 0.00 | 100 | 1008.4 |
| 20260506232030 | 51 | 225 | 4.0 | 5.0 | 0.00 | 0.00 | 0.00 | 100 | 1008.4 |
| 20260506231550 | 51 | 225 | 5.0 | 6.0 | 0.00 | 0.00 | 0.00 | 100 | 1008.4 |
| 20260506231109 | 51 | 225 | 5.0 | 6.0 | 0.00 | 0.00 | 0.00 | 100 | 1008.5 |
| 20260506230629 | 51 | 222 | 6.0 | 7.0 | 0.00 | 0.00 | 0.00 | 100 | 1008.4 |
| 20260506230149 | 51 | 225 | 6.0 | 7.0 | 0.00 | 0.00 | 0.00 | 100 | 1008.3 |
| 20260506225709 | 51 | 222 | 5.0 | 6.0 | 0.00 | 0.00 | 0.00 | 100 | 1008.3 |
| 20260506225229 | 51 | 222 | 6.0 | 7.0 | 0.00 | 0.00 | 0.00 | 100 | 1008.3 |
| 20260506224749 | 51 | 216 | 7.0 | 9.0 | 0.00 | 0.00 | 0.00 | 100 | 1008.4 |
| 20260506224309 | 51 | 222 | 5.0 | 7.0 | 0.00 | 0.00 | 0.00 | 100 | 1008.4 |
| 20260506223829 | 51 | 222 | 5.0 | 6.0 | 0.00 | 0.00 | 0.00 | 100 | 1008.4 |
| 20260506223349 | 51 | 226 | 6.0 | 10.0 | 0.00 | 0.00 | 0.00 | 100 | 1008.4 |
| 20260506222909 | 51 | 251 | 7.0 | 9.0 | 0.00 | 0.00 | 0.00 | 100 | 1008.3 |
| 20260506222429 | 51 | 231 | 9.0 | 13.0 | 0.00 | 0.00 | 0.00 | 100 | 1008.3 |
| 20260506221949 | 52 | 235 | 4.0 | 8.0 | 0.00 | 0.00 | 0.00 | 100 | 1008.1 |
| 20260506221509 | 52 | 235 | 3.0 | 5.0 | 0.00 | 0.00 | 0.00 | 100 | 1008.0 |
| 20260506221222 | 51 | 254 | 5.0 | 7.0 | 0.00 | 0.00 | 0.00 | 100 | 1008.1 |
| 20260506221028 | 51 | 254 | 5.0 | 7.0 | 0.00 | 0.00 | 0.00 | 100 | 1008.1 |
| 20260506220548 | 51 | 267 | 6.0 | 7.0 | 0.00 | 0.00 | 0.00 | 100 | 1008.1 |
| 20260506220108 | 51 | 264 | 6.0 | 7.0 | 0.00 | 0.00 | 0.00 | 100 | 1008.1 |
| 20260506215628 | 51 | 256 | 4.0 | 6.0 | 0.00 | 0.00 | 0.00 | 100 | 1008.2 |
| 20260506215148 | 51 | 249 | 4.0 | 6.0 | 0.00 | 0.00 | 0.00 | 100 | 1008.3 |
| 20260506214708 | 51 | 249 | 4.0 | 6.0 | 0.00 | 0.00 | 0.00 | 100 | 1008.4 |
| 20260506214228 | 51 | 258 | 6.0 | 8.0 | 0.00 | 0.00 | 0.00 | 100 | 1008.5 |
| 20260506213748 | 51 | 237 | 7.0 | 8.0 | 0.00 | 0.00 | 0.00 | 100 | 1008.5 |
| 20260506213308 | 51 | 224 | 7.0 | 8.0 | 0.00 | 0.00 | 0.00 | 100 | 1008.5 |
| 20260506212828 | 52 | 227 | 7.0 | 9.0 | 0.00 | 0.00 | 0.00 | 100 | 1008.5 |
| 20260506212348 | 52 | 225 | 8.0 | 10.0 | 0.00 | 0.00 | 0.00 | 100 | 1008.4 |
| 20260506211908 | 52 | 210 | 8.0 | 10.0 | 0.00 | 0.00 | 0.00 | 100 | 1008.3 |
| 20260506211427 | 52 | 228 | 11.0 | 15.0 | 0.00 | 0.00 | 0.00 | 100 | 1008.4 |
| 20260506210947 | 53 | 228 | 10.0 | 12.0 | 0.00 | 0.00 | 0.00 | 100 | 1008.3 |
| 20260506210507 | 53 | 225 | 10.0 | 13.0 | 0.00 | 0.00 | 0.00 | 100 | 1008.1 |
| 20260506210027 | 53 | 216 | 12.0 | 16.0 | 0.00 | 0.00 | 0.00 | 100 | 1008.0 |
| 20260506205547 | 53 | 213 | 13.0 | 17.0 | 0.00 | 0.00 | 0.00 | 100 | 1008.0 |
| 20260506205107 | 54 | 187 | 8.0 | 10.0 | 0.00 | 0.00 | 0.00 | 97 | 1007.9 |
| 20260506204627 | 54 | 180 | 7.0 | 10.0 | 0.00 | 0.00 | 0.00 | 96 | 1007.7 |
| 20260506204146 | 54 | 180 | 4.0 | 4.0 | 0.00 | 0.00 | 0.00 | 96 | 1007.6 |
| 20260506203706 | 54 | 142 | 5.0 | 7.0 | 0.00 | 0.00 | 0.00 | 94 | 1007.6 |
| 20260506203307 | 54 | 141 | 6.0 | 8.0 | 0.00 | 0.00 | 0.00 | 93 | 1007.6 |
| 20260506203226 | 54 | 141 | 6.0 | 8.0 | 0.00 | 0.00 | 0.00 | 93 | 1007.6 |
| 20260506202746 | 54 | 141 | 8.0 | 11.0 | 0.00 | 0.00 | 0.00 | 91 | 1007.5 |
| 20260506202306 | 55 | 120 | 7.0 | 10.0 | 0.00 | 0.00 | 0.00 | 88 | 1007.5 |
| 20260506201826 | 54 | 132 | 5.0 | 6.0 | 0.00 | 0.00 | 0.00 | 90 | 1007.5 |
| 20260506201345 | 55 | 135 | 4.0 | 6.0 | 0.00 | 0.00 | 0.00 | 89 | 1007.5 |
| 20260506200905 | 55 | 135 | 4.0 | 5.0 | 0.00 | 0.00 | 0.00 | 87 | 1007.4 |
| 20260506200532 | 55 | 101 | 3.0 | 4.0 | 0.00 | 0.00 | 0.00 | 85 | 1007.3 |
| 20260506200425 | 55 | 101 | 3.0 | 4.0 | 0.00 | 0.00 | 0.00 | 85 | 1007.3 |
| 20260506195945 | 56 | 61 | 4.0 | 5.0 | 0.00 | 0.00 | 0.00 | 85 | 1007.1 |
| 20260506195505 | 55 | 23 | 4.0 | 7.0 | 0.00 | 0.00 | 0.00 | 86 | 1007.0 |
| 20260506195024 | 55 | 357 | 4.0 | 5.0 | 0.00 | 0.00 | 0.00 | 86 | 1007.0 |
| 20260506194544 | 55 | 0 | 4.0 | 5.0 | 0.00 | 0.00 | 0.00 | 86 | 1006.9 |
| 20260506194503 | 55 | 332 | 2.0 | 3.0 | 0.00 | 0.00 | 0.00 | 86 | 1006.9 |
| 20260506194104 | 55 | 332 | 2.0 | 3.0 | 0.00 | 0.00 | 0.00 | 86 | 1006.9 |
| 20260506193624 | 55 | 225 | 3.0 | 4.0 | 0.00 | 0.00 | 0.00 | 86 | 1007.1 |
| 20260506193144 | 56 | 51 | 5.0 | 7.0 | 0.00 | 0.00 | 0.00 | 82 | 1007.3 |
| 20260506192704 | 56 | 45 | 7.0 | 8.0 | 0.00 | 0.00 | 0.00 | 83 | 1007.1 |
| 20260506192223 | 56 | 36 | 7.0 | 8.0 | 0.00 | 0.00 | 0.00 | 84 | 1007.0 |
| 20260506191743 | 55 | 33 | 5.0 | 5.0 | 0.00 | 0.00 | 0.00 | 85 | 1006.9 |
| 20260506191303 | 55 | 45 | 6.0 | 8.0 | 0.00 | 0.00 | 0.00 | 84 | 1006.9 |
| 20260506190823 | 55 | 46 | 6.0 | 7.0 | 0.00 | 0.00 | 0.00 | 85 | 1006.8 |
| 20260506190343 | 55 | 66 | 5.0 | 6.0 | 0.00 | 0.00 | 0.00 | 87 | 1006.9 |
| 20260506185902 | 55 | 71 | 5.0 | 8.0 | 0.00 | 0.00 | 0.00 | 86 | 1006.8 |
| 20260506185422 | 55 | 45 | 8.0 | 10.0 | 0.00 | 0.00 | 0.00 | 85 | 1006.5 |
| 20260506184947 | 55 | 45 | 7.0 | 10.0 | 0.00 | 0.00 | 0.00 | 84 | 1006.3 |
| 20260506184942 | 55 | 45 | 7.0 | 10.0 | 0.00 | 0.00 | 0.00 | 84 | 1006.3 |
| 20260506184506 | 55 | 41 | 5.0 | 6.0 | 0.00 | 0.00 | 0.00 | 84 | 1006.3 |
| 20260506184502 | 55 | 41 | 5.0 | 6.0 | 0.00 | 0.00 | 0.00 | 84 | 1006.3 |
| 20260506184026 | 54 | 356 | 3.0 | 5.0 | 0.00 | 0.00 | 0.00 | 84 | 1006.3 |
| 20260506184022 | 54 | 356 | 3.0 | 5.0 | 0.00 | 0.00 | 0.00 | 84 | 1006.3 |
| 20260506183546 | 55 | 359 | 6.0 | 7.0 | 0.00 | 0.00 | 0.00 | 83 | 1006.1 |
| 20260506183541 | 55 | 359 | 6.0 | 7.0 | 0.00 | 0.00 | 0.00 | 83 | 1006.1 |
| 20260506183101 | 55 | 0 | 6.0 | 7.0 | 0.00 | 0.00 | 0.00 | 83 | 1006.0 |
| 20260506182621 | 55 | 359 | 7.0 | 9.0 | 0.00 | 0.00 | 0.00 | 82 | 1006.0 |
| 20260506182145 | 55 | 342 | 6.0 | 8.0 | 0.00 | 0.00 | 0.00 | 81 | 1006.0 |
| 20260506182141 | 55 | 342 | 6.0 | 8.0 | 0.00 | 0.00 | 0.00 | 81 | 1006.0 |
| 20260506181704 | 55 | 350 | 7.0 | 10.0 | 0.00 | 0.00 | 0.00 | 80 | 1006.0 |
| 20260506181701 | 55 | 350 | 7.0 | 10.0 | 0.00 | 0.00 | 0.00 | 80 | 1006.0 |
| 20260506181220 | 56 | 341 | 7.0 | 13.0 | 0.00 | 0.00 | 0.00 | 79 | 1005.9 |
| 20260506180745 | 56 | 327 | 9.0 | 15.0 | 0.00 | 0.00 | 0.00 | 78 | 1006.1 |
| 20260506180740 | 56 | 327 | 9.0 | 15.0 | 0.00 | 0.00 | 0.00 | 78 | 1006.1 |
| 20260506180304 | 56 | 309 | 9.0 | 15.0 | 0.00 | 0.00 | 0.00 | 78 | 1006.2 |
| 20260506180300 | 56 | 309 | 9.0 | 15.0 | 0.00 | 0.00 | 0.00 | 78 | 1006.2 |
| 20260506175820 | 56 | 310 | 9.0 | 13.0 | 0.00 | 0.00 | 0.00 | 78 | 1006.2 |
| 20260506175340 | 57 | 287 | 8.0 | 12.0 | 0.00 | 0.00 | 0.00 | 78 | 1006.3 |
| 20260506174904 | 58 | 312 | 6.0 | 8.0 | 0.00 | 0.00 | 0.00 | 74 | 1006.4 |
| 20260506174859 | 58 | 312 | 6.0 | 8.0 | 0.00 | 0.00 | 0.00 | 74 | 1006.4 |
| 20260506174423 | 58 | 318 | 3.0 | 4.0 | 0.00 | 0.00 | 0.00 | 73 | 1006.3 |
| 20260506174419 | 58 | 318 | 3.0 | 4.0 | 0.00 | 0.00 | 0.00 | 73 | 1006.3 |
| 20260506173939 | 58 | 315 | 3.0 | 4.0 | 0.00 | 0.00 | 0.00 | 73 | 1006.3 |
| 20260506173458 | 58 | 315 | 3.0 | 5.0 | 0.00 | 0.00 | 0.00 | 72 | 1006.1 |
| 20260506173023 | 59 | 315 | 4.0 | 5.0 | 0.00 | 0.00 | 0.00 | 72 | 1006.1 |
| 20260506173018 | 59 | 315 | 4.0 | 5.0 | 0.00 | 0.00 | 0.00 | 72 | 1006.1 |
| 20260506172542 | 59 | 315 | 3.0 | 4.0 | 0.00 | 0.00 | 0.00 | 72 | 1006.0 |
| 20260506172538 | 59 | 315 | 3.0 | 4.0 | 0.00 | 0.00 | 0.00 | 72 | 1006.0 |
| 20260506172101 | 59 | 331 | 4.0 | 5.0 | 0.00 | 0.00 | 0.00 | 71 | 1005.9 |
| 20260506172057 | 59 | 331 | 4.0 | 5.0 | 0.00 | 0.00 | 0.00 | 71 | 1005.9 |
| 20260506171621 | 59 | 342 | 4.0 | 5.0 | 0.00 | 0.00 | 0.00 | 70 | 1005.8 |
| 20260506171617 | 59 | 342 | 4.0 | 5.0 | 0.00 | 0.00 | 0.00 | 70 | 1005.8 |
| 20260506171136 | 59 | 336 | 5.0 | 7.0 | 0.00 | 0.00 | 0.00 | 69 | 1005.6 |
| 20260506170656 | 60 | 341 | 7.0 | 10.0 | 0.00 | 0.00 | 0.00 | 68 | 1005.4 |
| 20260506170220 | 60 | 328 | 7.0 | 10.0 | 0.00 | 0.00 | 0.00 | 67 | 1005.4 |
| 20260506170216 | 60 | 328 | 7.0 | 10.0 | 0.00 | 0.00 | 0.00 | 67 | 1005.4 |
| 20260506165740 | 60 | 0 | 6.0 | 8.0 | 0.00 | 0.00 | 0.00 | 66 | 1005.5 |
| 20260506165735 | 60 | 0 | 6.0 | 8.0 | 0.00 | 0.00 | 0.00 | 66 | 1005.5 |
| 20260506165255 | 60 | 0 | 5.0 | 7.0 | 0.00 | 0.00 | 0.00 | 65 | 1005.5 |
| 20260506164818 | 60 | 16 | 4.0 | 5.0 | 0.00 | 0.00 | 0.00 | 66 | 1005.7 |
| 20260506164815 | 60 | 16 | 4.0 | 5.0 | 0.00 | 0.00 | 0.00 | 66 | 1005.7 |
| 20260506164338 | 61 | 45 | 4.0 | 5.0 | 0.00 | 0.00 | 0.00 | 65 | 1005.8 |
| 20260506164334 | 61 | 45 | 4.0 | 5.0 | 0.00 | 0.00 | 0.00 | 65 | 1005.8 |
| 20260506163858 | 61 | 45 | 4.0 | 5.0 | 0.00 | 0.00 | 0.00 | 66 | 1005.8 |
| 20260506163854 | 61 | 45 | 4.0 | 5.0 | 0.00 | 0.00 | 0.00 | 66 | 1005.8 |
| 20260506163418 | 61 | 57 | 4.0 | 5.0 | 0.00 | 0.00 | 0.00 | 65 | 1005.9 |
| 20260506163413 | 61 | 57 | 4.0 | 5.0 | 0.00 | 0.00 | 0.00 | 65 | 1005.9 |
| 20260506162933 | 61 | 71 | 4.0 | 5.0 | 0.00 | 0.00 | 0.00 | 62 | 1005.9 |
| 20260506162457 | 62 | 81 | 3.0 | 5.0 | 0.00 | 0.00 | 0.00 | 62 | 1005.9 |
| 20260506162452 | 62 | 81 | 3.0 | 5.0 | 0.00 | 0.00 | 0.00 | 62 | 1005.9 |
| 20260506162012 | 62 | 83 | 5.0 | 7.0 | 0.00 | 0.00 | 0.00 | 57 | 1006.0 |
| 20260506161531 | 62 | 54 | 6.0 | 10.0 | 0.00 | 0.00 | 0.00 | 59 | 1005.9 |
| 20260506161051 | 63 | 45 | 5.0 | 7.0 | 0.00 | 0.00 | 0.00 | 65 | 1006.0 |